FW9915 Weather Reports


time (UTC)temp
F
wind
direction
speed
knots
gust
knots
rain 1hr
in
rain 24hr
in
rain mn
in
humidity
%
barometer
mb
20260831230532 61 0.0 0.0 0.00 0.00 0.00 99 1017.1
20260831225521 61 0.0 0.0 0.00 0.00 0.00 99 1017.2
20260831224520 61 0.0 0.0 0.00 0.00 0.00 99 1017.3
20260831223541 61 0.0 0.0 0.00 0.00 0.00 99 1017.3
20260831222520 61 0.0 0.0 0.00 0.00 0.00 99 1017.3
20260831221520 61 0.0 0.0 0.00 0.00 0.00 99 1017.4
20260831220520 61 0.0 0.0 0.00 0.00 0.00 99 1017.4
20260831215520 62 0.0 0.0 0.00 0.00 0.00 99 1017.5
20260831214520 62 0.0 0.0 0.00 0.00 0.00 99 1017.6
20260831213532 62 0.0 0.0 0.00 0.00 0.00 99 1017.6
20260831212520 61 0.0 0.0 0.00 0.00 0.00 99 1017.7
20260831211520 62 0.0 0.0 0.00 0.00 0.00 98 1017.7
20260831210520 63 0.0 0.0 0.00 0.00 0.00 98 1017.8
20260831205520 62 0.0 0.0 0.00 0.00 0.00 98 1017.8
20260831204520 63 0.0 0.0 0.00 0.00 0.00 98 1017.8
20260831203520 63 0.0 0.0 0.00 0.00 0.00 97 1017.9
20260831202544 63 0.0 0.0 0.00 0.00 0.00 97 1017.9
20260831201520 64 0.0 0.0 0.00 0.00 0.00 97 1017.8
20260831200520 63 0.0 0.0 0.00 0.00 0.00 96 1017.7
20260831195520 64 0.0 0.0 0.00 0.00 0.00 96 1017.6
20260831194520 64 0.0 0.0 0.00 0.00 0.00 95 1017.6
20260831193520 65 0.0 0.0 0.00 0.00 0.00 95 1017.6
20260831192520 65 0.0 0.0 0.00 0.00 0.00 95 1017.7
20260831191521 66 0.0 0.0 0.00 0.00 0.00 95 1017.6
20260831190600 65 0.0 0.0 0.00 0.00 0.00 93 1017.7
20260831185540 66 0.0 0.0 0.00 0.00 0.00 92 1017.7
20260831184520 67 0.0 0.0 0.00 0.00 0.00 92 1017.7
20260831183520 67 67 1.7 1.7 0.00 0.00 0.00 91 1017.7
20260831182520 67 0.0 0.0 0.00 0.00 0.00 89 1017.8
20260831181540 67 0.0 0.0 0.00 0.00 0.00 88 1017.9
20260831180532 67 0.0 0.0 0.00 0.00 0.00 86 1017.9
20260831175544 68 68 0.9 1.7 0.00 0.00 0.00 84 1017.8
20260831174533 68 67 1.7 1.7 0.00 0.00 0.00 83 1017.8
20260831173520 68 68 0.0 1.7 0.00 0.00 0.00 82 1017.7
20260831172520 69 68 0.9 1.7 0.00 0.00 0.00 78 1017.6
20260831171520 70 67 1.7 1.7 0.00 0.00 0.00 76 1017.5
20260831170520 70 23 1.7 3.5 0.00 0.00 0.00 74 1017.5
20260831165520 71 67 1.7 1.7 0.00 0.00 0.00 71 1017.5
20260831164520 72 67 1.7 1.7 0.00 0.00 0.00 69 1017.5
20260831163520 73 66 1.7 3.5 0.00 0.00 0.00 66 1017.4
20260831162541 74 68 2.6 6.1 0.00 0.00 0.00 64 1017.4
20260831161520 75 74 4.3 6.1 0.00 0.00 0.00 60 1017.4
20260831160532 75 54 4.3 7.8 0.00 0.00 0.00 59 1017.4
20260831155541 76 68 4.3 7.8 0.00 0.00 0.00 56 1017.4
20260831154520 76 54 5.2 7.8 0.00 0.00 0.00 51 1017.4
20260831153520 77 59 5.2 7.8 0.00 0.00 0.00 51 1017.4
20260831152520 77 59 5.2 7.8 0.00 0.00 0.00 50 1017.4
20260831151520 77 59 6.1 7.8 0.00 0.00 0.00 50 1017.4
20260831150533 78 59 5.2 7.8 0.00 0.00 0.00 50 1017.4
20260831145520 78 55 5.2 9.6 0.00 0.00 0.00 50 1017.4
20260831144520 78 70 5.2 7.8 0.00 0.00 0.00 50 1017.4
20260831143520 79 61 5.2 9.6 0.00 0.00 0.00 48 1017.4
20260831142540 79 55 6.1 9.6 0.00 0.00 0.00 45 1017.4
20260831141520 79 81 5.2 7.8 0.00 0.00 0.00 45 1017.5
20260831140521 79 71 5.2 9.6 0.00 0.00 0.00 44 1017.5
20260831135521 79 64 6.1 13.0 0.00 0.00 0.00 44 1017.5
20260831134521 80 68 4.3 7.8 0.00 0.00 0.00 43 1017.5
20260831133521 80 84 4.3 7.8 0.00 0.00 0.00 42 1017.5
20260831132521 80 54 4.3 7.8 0.00 0.00 0.00 44 1017.4
20260831131520 80 69 6.1 13.0 0.00 0.00 0.00 40 1017.4
20260831130552 80 108 4.3 7.8 0.00 0.00 0.00 50 1017.5
20260831125532 81 60 5.2 9.6 0.00 0.00 0.00 42 1017.6
20260831124520 81 70 4.3 7.8 0.00 0.00 0.00 42 1017.7
20260831123532 79 87 4.3 6.1 0.00 0.00 0.00 55 1017.7
20260831122520 80 68 5.2 7.8 0.00 0.00 0.00 46 1017.8
20260831121532 79 115 4.3 7.8 0.00 0.00 0.00 53 1017.8
20260831120520 79 58 3.5 7.8 0.00 0.00 0.00 53 1017.8
20260831115521 80 101 3.5 7.8 0.00 0.00 0.00 46 1017.9
20260831114520 79 101 3.5 7.8 0.00 0.00 0.00 49 1017.9
20260831113521 79 103 4.3 13.0 0.00 0.00 0.00 54 1017.9
20260831112520 80 89 3.5 6.1 0.00 0.00 0.00 49 1017.9
20260831111520 81 65 4.3 9.6 0.00 0.00 0.00 41 1018.0
20260831110520 80 60 4.3 7.8 0.00 0.00 0.00 46 1018.0
20260831105541 80 94 4.3 9.6 0.00 0.00 0.00 48 1018.1
20260831104520 79 139 4.3 7.8 0.00 0.00 0.00 60 1018.1
20260831103520 80 89 4.3 6.1 0.00 0.00 0.00 43 1018.1
20260831102533 80 70 4.3 9.6 0.00 0.00 0.00 44 1018.2
20260831101520 80 99 4.3 9.6 0.00 0.00 0.00 44 1018.2
20260831100520 80 69 6.1 7.8 0.00 0.00 0.00 46 1018.2
20260831095521 79 46 5.2 9.6 0.00 0.00 0.00 46 1018.3
20260831094601 79 45 5.2 9.6 0.00 0.00 0.00 46 1018.3
20260831093521 80 56 4.3 7.8 0.00 0.00 0.00 49 1018.3
20260831092520 79 58 5.2 9.6 0.00 0.00 0.00 49 1018.3
20260831091520 79 54 4.3 7.8 0.00 0.00 0.00 50 1018.4
20260831090521 79 59 5.2 7.8 0.00 0.00 0.00 51 1018.4
20260831085541 79 42 2.6 6.1 0.00 0.00 0.00 49 1018.5
20260831084520 78 58 4.3 7.8 0.00 0.00 0.00 51 1018.5
20260831083521 79 35 6.1 9.6 0.00 0.00 0.00 51 1018.5
20260831082540 79 36 6.1 9.6 0.00 0.00 0.00 51 1018.6
20260831081520 78 61 5.2 9.6 0.00 0.00 0.00 54 1018.5
20260831080521 78 57 5.2 7.8 0.00 0.00 0.00 59 1018.5
20260831075520 77 58 7.0 9.6 0.00 0.00 0.00 58 1018.4
20260831074520 77 48 5.2 9.6 0.00 0.00 0.00 62 1018.5
20260831073541 77 41 5.2 7.8 0.00 0.00 0.00 63 1018.5
20260831072520 76 71 5.2 9.6 0.00 0.00 0.00 63 1018.4
20260831071520 76 51 7.0 9.6 0.00 0.00 0.00 66 1018.3
20260831070521 75 53 6.1 9.6 0.00 0.00 0.00 73 1018.4
20260831065540 74 26 6.1 9.6 0.00 0.00 0.00 82 1018.4
20260831064520 73 29 6.1 7.8 0.00 0.00 0.00 89 1018.4
20260831063520 73 35 6.1 9.6 0.00 0.00 0.00 91 1018.4
20260831062521 72 40 5.2 7.8 0.00 0.00 0.00 93 1018.3
20260831061553 72 32 5.2 9.6 0.00 0.00 0.00 93 1018.3
20260831060521 72 27 4.3 7.8 0.00 0.00 0.00 92 1018.3
20260831055540 72 18 4.3 7.8 0.00 0.00 0.00 92 1018.2
20260831054533 71 26 5.2 9.6 0.00 0.00 0.00 95 1018.1
20260831053520 70 18 7.0 9.6 0.00 0.00 0.00 97 1018.0
20260831052532 70 18 7.8 13.0 0.00 0.00 0.00 96 1018.0
20260831051520 70 15 7.0 9.6 0.00 0.00 0.00 96 1018.0
20260831050520 69 1 6.1 9.6 0.00 0.00 0.00 96 1017.9
20260831045520 68 20 6.1 9.6 0.00 0.00 0.00 96 1017.8
20260831044521 68 15 5.2 7.8 0.00 0.00 0.00 98 1017.8
20260831043520 67 2 3.5 6.1 0.00 0.00 0.00 99 1017.8
20260831042521 67 328 2.6 6.1 0.00 0.00 0.00 99 1017.8
20260831041601 66 337 3.5 6.1 0.00 0.00 0.00 99 1017.9
20260831040521 65 327 3.5 6.1 0.00 0.00 0.00 99 1017.8
20260831035520 65 326 4.3 6.1 0.00 0.00 0.00 99 1017.8
20260831034521 64 340 2.6 3.5 0.00 0.00 0.00 99 1017.7
20260831033533 64 336 2.6 3.5 0.00 0.00 0.00 99 1017.7
20260831032520 64 334 3.5 6.1 0.00 0.00 0.00 99 1017.7
20260831031520 65 328 3.5 6.1 0.00 0.00 0.00 99 1017.7
20260831030520 65 336 4.3 6.1 0.00 0.00 0.00 99 1017.7
20260831025520 65 333 3.5 6.1 0.00 0.00 0.00 99 1017.8
20260831024521 65 329 3.5 6.1 0.00 0.00 0.00 99 1017.8
20260831023521 65 336 2.6 6.1 0.00 0.00 0.00 99 1017.8
20260831022533 65 330 3.5 3.5 0.00 0.00 0.00 98 1017.8
20260831021521 65 330 3.5 6.1 0.00 0.00 0.00 98 1017.8
20260831020520 65 326 4.3 7.8 0.00 0.00 0.00 97 1017.9
20260831015521 65 327 4.3 6.1 0.00 0.00 0.00 97 1017.8
20260831014533 65 331 3.5 6.1 0.00 0.00 0.00 97 1017.9
20260831013541 64 329 2.6 3.5 0.00 0.00 0.00 97 1017.9
20260831012521 64 328 2.6 6.1 0.00 0.00 0.00 97 1018.0
20260831011520 64 331 2.6 3.5 0.00 0.00 0.00 98 1017.9
20260831010520 64 333 2.6 3.5 0.00 0.00 0.00 98 1017.9
20260831005533 64 338 1.7 3.5 0.00 0.00 0.00 99 1018.0
20260831004521 64 338 1.7 3.5 0.00 0.00 0.00 99 1018.0
20260831003521 65 338 1.7 3.5 0.00 0.00 0.00 99 1018.0
20260831002521 65 336 1.7 3.5 0.00 0.00 0.00 99 1018.1
20260831001520 65 334 3.5 6.1 0.00 0.00 0.00 99 1018.1
20260831000521 65 338 1.7 3.5 0.00 0.00 0.00 99 1018.1
20260830235541 65 338 1.7 3.5 0.00 0.00 0.00 99 1018.0
20260830234521 65 338 0.9 3.5 0.00 0.00 0.00 98 1018.0
20260830233520 65 332 1.7 3.5 0.00 0.00 0.00 98 1018.1
20260830232520 66 326 1.7 3.5 0.00 0.00 0.00 98 1018.3
20260830231521 65 335 2.6 3.5 0.00 0.00 0.00 98 1018.3